Flag for USA

Past Weather in 33°34'49"N, 117°15'10"W, USA — Yesterday and Last 2 Weeks

Now
76 °F

Sunny.


Feels Like: 78 °F
Forecast: 91 / 58 °F
Wind: 10 mph from Southwest

Location: Oceanside - Camp Pendleton
Current Time: Sep 19, 2020 at 7:12:29 pm
Latest Report: Sep 19, 2020 at 5:55 pm
Visibility: 10 mi
Pressure29.79 "Hg
Humidity: 58%
Dew Point: 60 °F
Location of 33°34'49"N, 117°15'10"WLocation

Past Weather in 33°34'49"N, 117°15'10"W — Graph

°F

33°34'49"N, 117°15'10"W Temperature Yesterday

Maximum temperature yesterday: 99 °F (at 1:55 pm)
Minimum temperature yesterday: 57 °F (at 2:55 am)
Average temperature yesterday: 75 °F

High & Low Weather Summary for the Past Weeks

 TemperatureHumidityPressure
High107 °F (Sep 5, 1:55 pm)84% (Sep 9, 6:55 am)30.03 "Hg (Sep 9, 6:55 am)
Low51 °F (Sep 12, 5:55 am)5% (Sep 18, 1:55 pm)29.65 "Hg (Sep 8, 4:55 pm)
Average71 °F57%29.86 "Hg
* Reported Sep 4 5:55 pm — Sep 19 5:55 pm, 33°34'49"N, 117°15'10"W. Weather by CustomWeather, © 2020

Note: Actual official high and low records may vary slightly from our data, if they occured in-between our weather recording intervals... More about our weather records

33°34'49"N, 117°15'10"W Weather History for the Previous 24 Hours

Scroll right to see more
 ConditionsComfort  
Time TempWeatherWind HumidityBarometerVisibility
5:55 pm
Sat, Sep 19
76 °FSunny.10 mph58%29.79 "Hg10 mi
4:55 pm81 °FSunny.13 mph44%29.79 "Hg10 mi
3:55 pm83 °FPassing clouds.9 mph40%29.79 "Hg10 mi
2:55 pm84 °FSunny.12 mph37%29.80 "Hg10 mi
1:55 pm87 °FSunny.9 mph31%29.82 "Hg10 mi
12:55 pm87 °FSunny.10 mph31%29.83 "Hg10 mi
11:55 am85 °FSunny.10 mph34%29.85 "Hg10 mi
10:55 am85 °FSunny.9 mph35%29.86 "Hg10 mi
9:55 am82 °FSunny.3 mph34%29.87 "Hg10 mi
8:55 am73 °FSunny.No wind38%29.88 "Hg10 mi
7:55 am65 °FSunny.No wind52%29.88 "Hg9 mi
5:55 am57 °FClear.No wind67%29.86 "Hg9 mi
4:55 am58 °FClear.No wind67%29.85 "Hg9 mi
3:55 am59 °FClear.No wind64%29.85 "Hg9 mi
2:55 am60 °FClear.No wind65%29.85 "Hg9 mi
1:55 am62 °FClear.No wind62%29.85 "Hg9 mi
12:55 am62 °FClear.No wind62%29.85 "Hg9 mi
11:55 pm
Fri, Sep 18
61 °FClear.3 mph67%29.86 "Hg9 mi
10:55 pm63 °FClear.No wind65%29.85 "Hg9 mi
9:55 pm69 °FClear.No wind57%29.85 "Hg9 mi
8:55 pm69 °FClear.No wind57%29.84 "Hg9 mi
7:55 pm74 °FClear.5 mph53%29.83 "Hg9 mi
Weather by CustomWeather, © 2020

See weather overview